This demonstration page uses our WeatherBlox Daily Observations layout. Learn more.

Left ArrowRight Arrow

41.86663, -103.66717

Hourly Observations for July 17, 2018

Temp ( °F °C ) Dew Point ( °F °C ) Humidity (%) Winds ( mph kmh ) Pressure ( in mb ) Visibility ( mi km ) Precip ( " mm )
12:53 am 00:53 Partly Cloudy 64 18 N/A N/A SSE 9 15 30.03 1017 10 16.0934 N/A
1:53 am 01:53 Clear 63 17 N/A N/A N 3 6 30.02 1017 10 16.0934 N/A
2:53 am 02:53 Clear 61 16.1 61 16.1 100 100 WNW 3 6 30.04 1017 10 16.0934 N/A
3:53 am 03:53 Clear 61 16.1 61 16.1 100 100 N N/A 30.05 1018 10 16.0934 N/A
4:53 am 04:53 Clear 60 15.6 60 15.6 100 100 N N/A 30.08 1019 8 12.87472 N/A
5:53 am 05:53 Sunny 60 15.6 60 15.6 100 100 NW 3 6 30.09 1019 8 12.87472 N/A
6:53 am 06:53 Sunny 62 16.7 62 16.7 100 100 SSE 3 6 30.08 1019 8 12.87472 N/A
7:28 am 07:28 Mostly Sunny 63 17 63 17 100 100 N N/A 30.06 1018 9 14.48406 N/A
7:53 am 07:53 Mostly Sunny 65 18.3 65 18.3 100 100 S 3 6 30.09 1019 10 16.0934 N/A
8:53 am 08:53 Sunny 68 20 63 17.2 84 84 SE 3 6 30.09 1019 10 16.0934 N/A
9:53 am 09:53 Partly Cloudy 71 21.7 65 18.3 81 81 ESE 3 6 30.1 1019 10 16.0934 N/A
10:53 am 10:53 Sunny 74 23.3 65 18.3 74 74 VRB 6 9 30.09 1019 10 16.0934 N/A
11:53 am 11:53 Sunny 77 25 66 18.9 69 69 SE 6 9 30.07 1018 10 16.0934 N/A
12:53 pm 12:53 Sunny 80 26.7 66 18.9 62 62 E 8 13 30.05 1018 10 16.0934 N/A
1:53 pm 13:53 Sunny 83 28.3 66 18.9 57 57 ESE 14 22 30.02 1017 10 16.0934 N/A
2:53 pm 14:53 Sunny 83 28.3 65 18.3 55 55 ESE 13 20 30 1016 10 16.0934 N/A
3:53 pm 15:53 Sunny 82 27.8 67 19.4 60 60 E 12 19 30 1016 10 16.0934 N/A
4:53 pm 16:53 Sunny 78 25.6 69 20.6 74 74 ESE 10 17 30.02 1017 10 16.0934 N/A
5:53 pm 17:53 Sunny 79 26.1 68 20 69 69 SE 18 30 29.96 1015 10 16.0934 N/A
6:53 pm 18:53 Sunny 80 26.7 65 18.3 60 60 SE 16 26 29.93 1014 10 16.0934 N/A
7:53 pm 19:53 Sunny 77 25 66 18.9 69 69 SE 16 26 29.94 1014 10 16.0934 N/A
8:53 pm 20:53 Clear 73 22.8 67 19.4 81 81 ESE 13 20 29.95 1014 10 16.0934 N/A
9:53 pm 21:53 Clear 71 21.7 67 19.4 87 87 ESE 13 20 29.96 1015 10 16.0934 N/A
10:53 pm 22:53 Clear 72 22.2 66 18.9 82 82 SE 17 28 29.94 1014 10 16.0934 N/A
11:53 pm 23:53 Partly Cloudy 70 21.1 67 19.4 90 90 N 8 13 30 1016 10 16.0934 N/A

Powered by AerisWeather